TimeEDT,TemperatureF,Dew PointF,Humidity,Sea Level PressureIn,VisibilityMPH,Wind Direction,Wind SpeedMPH,Gust SpeedMPH,PrecipitationIn,Events,Conditions,WindDirDegrees,DateUTC
12:53 AM,68.0,64.9,90,29.99,10.0,South,8.1,-,N/A,,Clear,190,2013-10-04 04:53:00
1:53 AM,68.0,64.9,90,29.98,10.0,SSW,9.2,-,N/A,,Clear,200,2013-10-04 05:53:00
2:53 AM,68.0,64.9,90,29.99,9.0,SSW,9.2,-,N/A,,Clear,200,2013-10-04 06:53:00
3:53 AM,68.0,64.0,87,29.98,9.0,SSW,8.1,-,N/A,,Clear,200,2013-10-04 07:53:00
4:53 AM,66.9,64.0,90,29.98,7.0,SSW,8.1,-,N/A,,Clear,200,2013-10-04 08:53:00
5:53 AM,66.9,64.0,90,30.00,6.0,SSW,6.9,-,N/A,,Clear,210,2013-10-04 09:53:00
6:53 AM,66.9,64.9,93,30.01,7.0,SW,6.9,-,N/A,,Scattered Clouds,220,2013-10-04 10:53:00
7:53 AM,68.0,64.9,90,30.02,7.0,SW,6.9,-,0.00,,Overcast,220,2013-10-04 11:53:00
8:53 AM,69.1,64.9,87,30.03,5.0,SSW,5.8,-,0.01,Rain,Light Rain,210,2013-10-04 12:53:00
9:53 AM,73.0,66.0,79,30.03,10.0,SW,8.1,-,0.00,,Scattered Clouds,220,2013-10-04 13:53:00
10:53 AM,72.0,64.9,78,30.04,10.0,SSW,11.5,-,N/A,,Mostly Cloudy,210,2013-10-04 14:53:00
11:53 AM,71.1,66.9,87,30.04,10.0,South,3.5,-,0.00,,Overcast,180,2013-10-04 15:53:00
12:01 PM,71.6,66.2,83,30.06,10.0,South,4.6,-,N/A,,Overcast,170,2013-10-04 16:01:00
12:53 PM,72.0,66.0,81,30.04,10.0,SE,6.9,-,N/A,,Overcast,140,2013-10-04 16:53:00
1:13 PM,73.4,66.2,78,30.06,10.0,SE,8.1,-,N/A,,Mostly Cloudy,140,2013-10-04 17:13:00
1:53 PM,75.9,66.0,71,30.02,10.0,SE,9.2,-,N/A,,Partly Cloudy,140,2013-10-04 17:53:00
2:53 PM,75.0,66.0,73,29.99,10.0,SE,8.1,-,N/A,,Partly Cloudy,130,2013-10-04 18:53:00
3:50 PM,75.2,66.2,73,30.00,10.0,SSE,9.2,-,N/A,Thunderstorm,Overcast,160,2013-10-04 19:50:00
3:53 PM,75.0,66.0,73,29.99,10.0,SSE,8.1,-,N/A,Thunderstorm,Thunderstorm,150,2013-10-04 19:53:00
4:05 PM,71.6,66.2,83,30.05,1.5,NW,17.3,27.6,0.20,Rain-Thunderstorm,Heavy Thunderstorms and Rain,310,2013-10-04 20:05:00
4:14 PM,66.2,66.2,100,30.03,0.8,NW,16.1,32.2,0.61,Rain-Thunderstorm,Heavy Thunderstorms and Rain,320,2013-10-04 20:14:00
4:16 PM,66.2,66.2,100,30.04,0.8,NW,18.4,32.2,0.66,Rain-Thunderstorm,Heavy Thunderstorms and Rain,320,2013-10-04 20:16:00
4:38 PM,66.2,66.2,100,30.05,2.0,NW,9.2,-,1.06,Rain-Thunderstorm,Thunderstorms and Rain,310,2013-10-04 20:38:00
4:41 PM,66.2,66.2,100,30.07,1.8,West,15.0,21.9,1.14,Rain-Thunderstorm,Heavy Thunderstorms and Rain,280,2013-10-04 20:41:00
4:47 PM,66.2,64.4,94,30.05,0.2,NNW,9.2,42.6,1.60,Fog-Rain-Thunderstorm,Heavy Thunderstorms and Rain,340,2013-10-04 20:47:00
4:53 PM,66.9,66.0,97,30.03,0.5,ENE,3.5,-,1.68,Fog-Rain-Thunderstorm,Heavy Thunderstorms and Rain,70,2013-10-04 20:53:00
4:57 PM,66.2,66.2,100,30.05,1.0,East,3.5,-,0.02,Rain-Thunderstorm,Heavy Thunderstorms and Rain,100,2013-10-04 20:57:00
5:04 PM,66.2,66.2,100,30.05,3.0,Calm,Calm,-,0.03,Rain-Thunderstorm,Light Thunderstorms and Rain,0,2013-10-04 21:04:00
5:07 PM,68.0,66.2,94,30.05,4.0,Calm,Calm,-,0.03,Rain-Thunderstorm,Light Rain,0,2013-10-04 21:07:00
5:17 PM,68.0,66.2,94,30.05,4.0,SE,5.8,-,0.05,Rain-Thunderstorm,Light Rain,130,2013-10-04 21:17:00
5:38 PM,66.2,64.4,94,30.05,2.5,South,10.4,-,0.11,Rain-Thunderstorm,Rain,170,2013-10-04 21:38:00
5:49 PM,66.2,64.4,94,30.05,1.0,SSE,4.6,-,0.25,Rain-Thunderstorm,Heavy Rain,150,2013-10-04 21:49:00
5:53 PM,66.0,64.9,96,30.02,0.8,SE,10.4,-,0.34,Rain-Thunderstorm,Heavy Rain,140,2013-10-04 21:53:00
6:00 PM,66.2,64.4,94,30.05,1.0,SSE,12.7,-,0.04,Rain,Heavy Rain,160,2013-10-04 22:00:00
6:14 PM,66.2,64.4,94,30.04,2.0,SSE,13.8,-,0.12,Rain,Rain,150,2013-10-04 22:14:00
6:23 PM,66.2,64.4,94,30.05,5.0,South,12.7,-,0.13,Rain,Light Rain,180,2013-10-04 22:23:00
6:53 PM,66.0,64.0,93,30.04,7.0,South,10.4,-,0.19,Rain,Light Rain,170,2013-10-04 22:53:00
7:53 PM,66.9,64.9,93,30.02,10.0,SSE,8.1,-,0.07,,Overcast,160,2013-10-04 23:53:00
8:53 PM,66.9,64.9,93,30.02,10.0,South,8.1,-,N/A,,Overcast,180,2013-10-05 00:53:00
9:53 PM,66.0,64.0,93,30.01,10.0,SSE,6.9,-,0.00,,Scattered Clouds,160,2013-10-05 01:53:00
10:53 PM,66.0,64.0,93,30.02,10.0,South,6.9,-,N/A,,Clear,190,2013-10-05 02:53:00
11:53 PM,64.9,63.0,93,30.02,10.0,South,5.8,-,N/A,,Clear,180,2013-10-05 03:53:00